This is the latest recevied weather packets stored in our database for station/object KB9MLJ. If no packets are shown the sender has not sent any weather packets the latest 1 day(s).
| Time | Temp. | Humidity | Pressure | Rain* | Wind** | Luminosity | Snow |
|---|---|---|---|---|---|---|---|
| 1777999005 | 11.67° C | 73% | 1009.2 hPa | 0 mm | 2.24 m/s, 338° | 689 W/m² | - |
| 1777998703 | 11.67° C | 71% | 1009.5 hPa | 0 mm | 1.34 m/s, 293° | 428 W/m² | - |
| 1777998400 | 11.67° C | 73% | 1009.2 hPa | 0 mm | 3.13 m/s, 2° | 450 W/m² | - |
| 1777998098 | 11.11° C | 73% | 1009.2 hPa | 0 mm | 1.79 m/s, 335° | 561 W/m² | - |
| 1777997795 | 11.11° C | 74% | 1009.5 hPa | 0 mm | 0.45 m/s, 260° | 496 W/m² | - |
| 1777997492 | 11.11° C | 78% | 1009.2 hPa | 0 mm | 0.45 m/s, 349° | 732 W/m² | - |
| 1777997189 | 10.56° C | 79% | 1009.5 hPa | 0 mm | 0.89 m/s, 252° | 408 W/m² | - |
| 1777996887 | 10.56° C | 80% | 1009.5 hPa | 0 mm | 1.34 m/s, 346° | 525 W/m² | - |
| 1777996583 | 10° C | 80% | 1009.5 hPa | 0 mm | 1.34 m/s, 309° | 393 W/m² | - |
| 1777996279 | 10° C | 81% | 1009.5 hPa | 0 mm | 0.89 m/s, 1° | 695 W/m² | - |
| 1777995975 | 10° C | 82% | 1009.2 hPa | 0 mm | 2.68 m/s, 0° | 477 W/m² | - |
| 1777995671 | 9.44° C | 83% | 1009.5 hPa | 0 mm | 2.68 m/s, 341° | 554 W/m² | - |
| 1777995369 | 8.89° C | 86% | 1009.5 hPa | 0 mm | 1.79 m/s, 9° | 823 W/m² | - |
| 1777995066 | 8.89° C | 88% | 1009.5 hPa | 0 mm | 2.24 m/s, 322° | 811 W/m² | - |
| 1777994773 | 8.33° C | 89% | 1009.2 hPa | 0 mm | 2.68 m/s, 324° | 658 W/m² | - |
| 1777994458 | 8.33° C | 90% | 1009.2 hPa | 0 mm | 3.58 m/s, 358° | 314 W/m² | - |
| 1777994154 | 8.33° C | 91% | 1009.2 hPa | 0 mm | 2.68 m/s, 358° | 281 W/m² | - |
| 1777993852 | 8.33° C | 91% | 1009.5 hPa | 0 mm | 3.58 m/s, 338° | 223 W/m² | - |
| 1777993548 | 7.78° C | 91% | 1009.2 hPa | 0 mm | 2.24 m/s, 344° | 188 W/m² | - |
| 1777993244 | 7.78° C | 91% | 1009.2 hPa | 0 mm | 1.79 m/s, 8° | 181 W/m² | - |
| 1777992940 | 7.78° C | 90% | 1009.2 hPa | 0 mm | 3.13 m/s, 348° | 182 W/m² | - |
| 1777992639 | 7.78° C | 90% | 1009.5 hPa | 0 mm | 2.68 m/s, 341° | 170 W/m² | - |
| 1777992336 | 7.78° C | 90% | 1009.2 hPa | 0 mm | 0.89 m/s, 346° | 116 W/m² | - |
| 1777992033 | 7.78° C | 89% | 1009.2 hPa | 0 mm | 1.79 m/s, 348° | 115 W/m² | - |
| 1777991731 | 7.78° C | 88% | 1009.2 hPa | 0 mm | 2.24 m/s, 359° | 127 W/m² | - |
* Rain latest hour (hover to see other rain measurements)
** Current wind speed in m/s (hover to see current wind gust speed)